Salem, OR

1:26 PM PST on February 23, 2018 (GMT -0800)
McNary

Weather History for KSLE - August, 2014

Change the Weather History Date:

Friday, August 8, 2014

  Actual Average Record
Temperature  
Mean Temperature 69 °F 68 °F  
Max Temperature 82 °F 83 °F 106 °F (1978)
Min Temperature 56 °F 54 °F 40 °F (1970)
Degree Days  
Heating Degree Days 0 1  
Month to date heating degree days 0 5  
Since 1 June heating degree days 69 165  
Since 1 July heating degree days 3 35  
Cooling Degree Days 4 4  
Month to date cooling degree days 69 32  
Year to date cooling degree days 346 178  
Since 1 June cooling degree days 330 169  
Growing Degree Days 18 (Base 50)    
Moisture  
Dew Point 49 °F    
Average Humidity 53    
Maximum Humidity 77    
Minimum Humidity 28    
Precipitation  
Precipitation 0.00 in 0.01 in 0.24 in (1912)
Month to date precipitation 0.15 0.06  
Year to date precipitation 22.62 21.61  
Sea Level Pressure  
Sea Level Pressure 30.07 in    
Wind  
Wind Speed 10 mph (North)    
Max Wind Speed 16 mph    
Max Gust Speed 22 mph    
Visibility 10 miles    
Events      
T = Trace of Precipitation, MM = Missing Value Source: NWS Daily Summary

Daily Weather History Graph

Daily Weather History Graph

Search for Another Location

Airport or City:

Trip Planner

Search our weather history database for the weather conditions in past years. The results will help you decide how hot, cold, wet, or windy it might be!

Date:

Astronomy

Aug. 08, 2014 Rise Set
Actual Time 6:05 AM PDT 8:28 PM PDT
Civil Twilight 5:33 AM PDT 9:01 PM PDT
Nautical Twilight 4:52 AM PDT 9:41 PM PDT
Astronomical Twilight 4:06 AM PDT 10:27 PM PDT
Moon 6:45 PM PDT (8/8) 3:42 AM PDT (8/8)
Length of Visible Light 15h 28m
Length of Day
14h 22m
Waxing Gibbous, 94% of the Moon is Illuminated
Aug 8
Waxing Gibbous
Aug 10
Full
Aug 17
Last Quarter
Aug 25
New
Sep 2
First Quarter

Hourly Weather History & Observations

Time (PDT) Temp. Dew Point Humidity Pressure Visibility Wind Dir Wind Speed Gust Speed Precip Events Conditions
12:56 AM 60.1 °F 48.9 °F 67% 30.05 in 10.0 mi North 5.8 mph - N/A   Clear
1:56 AM 59.0 °F 48.0 °F 67% 30.06 in 10.0 mi NNW 6.9 mph - N/A   Clear
2:56 AM 57.9 °F 46.9 °F 67% 30.07 in 10.0 mi North 8.1 mph - N/A   Clear
3:56 AM 57.0 °F 48.0 °F 72% 30.08 in 10.0 mi North 5.8 mph - N/A   Clear
4:56 AM 57.0 °F 46.9 °F 69% 30.09 in 10.0 mi NNW 5.8 mph - N/A   Clear
5:56 AM 55.9 °F 48.0 °F 75% 30.09 in 10.0 mi NNW 8.1 mph - N/A   Clear
6:56 AM 57.0 °F 48.0 °F 72% 30.11 in 10.0 mi NNW 6.9 mph - N/A   Clear
7:56 AM 60.1 °F 48.9 °F 67% 30.12 in 10.0 mi NNW 5.8 mph - N/A   Clear
8:56 AM 64.0 °F 50.0 °F 60% 30.12 in 10.0 mi North 9.2 mph - N/A   Clear
9:56 AM 66.9 °F 48.9 °F 52% 30.12 in 10.0 mi NE 12.7 mph - N/A   Clear
10:56 AM 70.0 °F 48.9 °F 47% 30.12 in 10.0 mi NE 10.4 mph - N/A   Clear
11:56 AM 72.0 °F 48.9 °F 44% 30.11 in 10.0 mi North 12.7 mph 17.3 mph N/A   Clear
12:56 PM 75.0 °F 48.9 °F 40% 30.10 in 10.0 mi NNW 11.5 mph - N/A   Clear
1:56 PM 77.0 °F 48.0 °F 36% 30.09 in 10.0 mi NNE 13.8 mph - N/A   Clear
2:56 PM 79.0 °F 48.0 °F 34% 30.07 in 10.0 mi NNE 9.2 mph 17.3 mph N/A   Clear
3:56 PM 81.0 °F 48.9 °F 33% 30.05 in 10.0 mi NNE 15.0 mph 21.9 mph N/A   Clear
4:56 PM 81.0 °F 44.1 °F 27% 30.04 in 10.0 mi NNE 13.8 mph - N/A   Clear
5:56 PM 82.0 °F 48.0 °F 30% 30.03 in 10.0 mi North 11.5 mph - N/A   Clear
6:56 PM 80.1 °F 48.9 °F 34% 30.01 in 10.0 mi North 12.7 mph - N/A   Clear
7:56 PM 77.0 °F 50.0 °F 39% 30.02 in 10.0 mi North 12.7 mph - N/A   Clear
8:56 PM 73.0 °F 52.0 °F 48% 30.03 in 10.0 mi NNW 11.5 mph - N/A   Clear
9:56 PM 68.0 °F 53.1 °F 59% 30.05 in 10.0 mi NNW 13.8 mph - N/A   Clear
10:56 PM 64.9 °F 52.0 °F 63% 30.06 in 10.0 mi North 8.1 mph - N/A   Clear
11:56 PM 63.0 °F 52.0 °F 67% 30.07 in 10.0 mi NNW 9.2 mph - N/A   Clear